Tracking 19146 objects as of 24-Apr-2018
HD Live streaming from Space Station
objects crossing your sky now

TITAN 34D R/B

Track TITAN 34D R/B now!


NORAD ID: 18584
Int'l Code: 1987-097B
Perigee: 35,499.5 km
Apogee: 35,552.7 km
Inclination: 13.6 °
Period: 1,422.4 minutes
Semi major axis: 41897 km
RCS: Unknown
Launch date: November 29, 1987
Source: United States (US)
Launch site: AIR FORCE EASTERN TEST RANGE (AFETR)

Note: This is a ROCKET BODY
aabbcc
Your satellite tracking list
Your tracking list is empty




NASA's NSSDC Master Catalog

Two Line Element Set (TLE):
1 18584U 87097B   18078.73004288 0.00000000  00000-0  00000-0 0    06
2 18584  13.5980 356.9846 0006343 226.6784 133.2807  1.01234195    06
Source of the keplerian elements: McCants